Lake Apopka Weather Center

Moon Phase Calendar



Lake Apopka Water Level
Online Cameras

 


      

Current Conditions in Montverde
5/8/2021 5:39:36 AM

62°F
Feels Like 61
Clear
Humidity
67%
Pressure
30.06"
Wind
1 mph (NW)
Dew Point
51°F
UV Index
0/10 (Low)
Visibility
6 mi

Hourly Forecast

Date & Time Sat, May 8
5:00 AM
Sat, May 8
6:00 AM
Sat, May 8
7:00 AM
Sat, May 8
8:00 AM
Sat, May 8
9:00 AM
Sat, May 8
10:00 AM
Sat, May 8
11:00 AM
Sat, May 8
12:00 PM
Sat, May 8
1:00 PM
Sat, May 8
2:00 PM
Sat, May 8
3:00 PM
Sat, May 8
4:00 PM
Sat, May 8
5:00 PM
Sat, May 8
6:00 PM
Sat, May 8
7:00 PM
Sat, May 8
8:00 PM
Sat, May 8
9:00 PM
Sat, May 8
10:00 PM
Sat, May 8
11:00 PM
Sun, May 9
12:00 AM
Sun, May 9
1:00 AM
Sun, May 9
2:00 AM
Sun, May 9
3:00 AM
Sun, May 9
4:00 AM
Sun, May 9
5:00 AM
Sun, May 9
6:00 AM
Sun, May 9
7:00 AM
Sun, May 9
8:00 AM
Sun, May 9
9:00 AM
Sun, May 9
10:00 AM
Sun, May 9
11:00 AM
Sun, May 9
12:00 PM
Sun, May 9
1:00 PM
Sun, May 9
2:00 PM
Sun, May 9
3:00 PM
Sun, May 9
4:00 PM
Sun, May 9
5:00 PM
Sun, May 9
6:00 PM
Sun, May 9
7:00 PM
Sun, May 9
8:00 PM
Sun, May 9
9:00 PM
Sun, May 9
10:00 PM
Sun, May 9
11:00 PM
Mon, May 10
12:00 AM
Mon, May 10
1:00 AM
Mon, May 10
2:00 AM
Mon, May 10
3:00 AM
Mon, May 10
4:00 AM
Condition
Clear

Clear

Clear

Clear

Clear

Clear

Clear

Clear

Clear

Clear

Clear

Clear

Clear

Clear

Clear

Clear

Clear

Clouds

Clouds

Clouds

Clouds

Clouds

Clouds

Clouds

Clouds

Clouds

Clouds

Clouds

Clear

Clear

Clear

Clear

Clear

Clear

Clear

Clear

Clear

Clear

Clear

Clear

Clear

Clear

Clear

Clear

Clouds

Clouds

Clouds

Clouds
Temperature 62°F62°F62°F63°F66°F71°F76°F79°F81°F83°F84°F85°F85°F84°F80°F74°F72°F70°F69°F68°F68°F67°F66°F66°F65°F65°F65°F69°F74°F78°F82°F84°F87°F89°F90°F90°F90°F90°F86°F79°F76°F75°F74°F74°F73°F73°F72°F71°F
Feels Like 61°F61°F61°F61°F64°F69°F75°F79°F80°F81°F81°F82°F82°F81°F79°F73°F70°F69°F68°F67°F66°F66°F65°F65°F65°F64°F64°F69°F74°F78°F81°F83°F84°F86°F87°F87°F87°F87°F85°F79°F76°F75°F74°F74°F73°F73°F72°F72°F
Cloudiness 0%0%0%0%0%0%0%0%0%0%5%3%2%2%3%4%6%48%65%74%79%82%54%41%28%21%17%14%0%0%0%0%0%0%0%0%0%0%0%0%6%6%6%7%20%33%100%100%
Visibility 6 mi6 mi6 mi6 mi6 mi6 mi6 mi6 mi6 mi6 mi6 mi6 mi6 mi6 mi6 mi6 mi6 mi6 mi6 mi6 mi6 mi6 mi6 mi6 mi6 mi6 mi6 mi6 mi6 mi6 mi6 mi6 mi6 mi6 mi6 mi6 mi6 mi6 mi6 mi6 mi6 mi6 mi6 mi6 mi6 mi6 mi6 mi6 mi
Precipitation 0%0%0%0%0%0%0%0%0%0%0%0%0%0%0%0%0%0%0%0%0%0%0%0%0%0%0%0%0%0%0%0%0%0%0%0%0%0%0%0%0%0%0%0%0%0%0%0%
Humidity 61%67%62%57%48%39%29%27%25%22%20%19%19%20%29%39%43%44%47%49%52%55%58%61%63%65%67%62%54%47%38%33%30%27%26%25%25%27%35%49%57%62%65%67%69%71%73%75%
Dew Point 49°F51°F49°F47°F46°F44°F42°F43°F42°F41°F39°F39°F38°F39°F46°F48°F48°F48°F48°F49°F49°F50°F51°F52°F53°F53°F54°F56°F57°F56°F54°F53°F52°F51°F51°F51°F51°F52°F56°F58°F60°F61°F61°F62°F62°F63°F63°F63°F
Pressure 30.06"30.06"30.06"30.09"30.12"30.12"30.15"30.15"30.12"30.12"30.09"30.06"30.06"30.06"30.06"30.09"30.12"30.12"30.12"30.12"30.12"30.12"30.12"30.12"30.12"30.12"30.15"30.15"30.15"30.15"30.15"30.15"30.12"30.09"30.06"30.06"30.03"30.03"30.03"30.06"30.09"30.09"30.09"30.09"30.09"30.06"30.06"30.03"
Wind Speed 7.3 mph7 mph6.5 mph6.6 mph7.5 mph6.6 mph5.8 mph4.4 mph4.2 mph4.6 mph4.6 mph3.9 mph4 mph4.4 mph7.8 mph11.9 mph11.5 mph10.2 mph8.6 mph7.6 mph6.8 mph6.3 mph5.8 mph5.3 mph5.4 mph5.6 mph5.6 mph6.4 mph9.3 mph11.5 mph11 mph10.2 mph9.8 mph9.3 mph9.1 mph8.9 mph8.9 mph9.1 mph10.4 mph13.9 mph13.3 mph12 mph11.6 mph11.7 mph11.2 mph11.2 mph9 mph7.4 mph
Wind
Direction
21°
NNE
23°
NNE
17°
NNE
12°
NNE
19°
NNE
26°
NNE
16°
NNE

N
341°
NNW
338°
NNW
334°
NNW
354°
N
355°
N
16°
NNE
65°
ENE
82°
E
92°
E
95°
E
100°
E
110°
ESE
112°
ESE
126°
SE
130°
SE
126°
SE
124°
SE
124°
SE
119°
ESE
122°
ESE
132°
SE
137°
SE
139°
SE
142°
SE
145°
SE
150°
SSE
154°
SSE
156°
SSE
158°
SSE
149°
SSE
127°
SE
116°
ESE
127°
SE
139°
SE
138°
SE
145°
SE
152°
SSE
160°
SSE
165°
SSE
166°
SSE

Daily Forecast

Date High Low Precip. Humidity
Today
May 8

Clear
85 °F
62 °F
0%
25%
Sunday
May 9

Clear
90 °F
65 °F
0%
30%
Monday
May 10

Clouds
94 °F
70 °F
17%
32%
Tuesday
May 11

Rain
95 °F
71 °F
73%
30%
Wednesday
May 12

Rain
91 °F
72 °F
99%
40%
Thursday
May 13

Rain
88 °F
72 °F
84%
50%
Friday
May 14

Clouds
85 °F
72 °F
13%
47%
Saturday
May 15

Clouds
86 °F
70 °F
3%
38%
Sunday
May 16

Clouds
86 °F
68 °F
0%
36%
Monday
May 17

Rain
85 °F
70 °F
37%
51%
Tuesday
May 18

Rain
93 °F
72 °F
29%
36%
Wednesday
May 19

Rain
93 °F
72 °F
87%
38%
Thursday
May 20

Rain
91 °F
73 °F
83%
42%
Friday
May 21

Rain
94 °F
73 °F
34%
35%
Saturday
May 22

Clear
95 °F
73 °F
28%
34%
Sunday
May 23

Clouds
95 °F
74 °F
6%
32%

Temperature 8-14 Day Outlook



Precipitation 8-14 Day Outlook




Quick Links
Lake Apopka News
Lake Apopka Photos
Lake Apopka Videos




About Us
Contact Us
Site Map
Search Site
Advertise With Us
   
Apopka.USLakes.info
THE LAKE APOPKA WEBSITE

Copyright 2021, Lakes Online
Privacy    |    Legal